Weather History for KCNM - November, 2013

Change the Weather History Date:

Saturday, November 23, 2013

  Actual Average Record
Temperature  
Mean Temperature 30 °F -  
Max Temperature 34 °F 62 °F 82 °F (1954)
Min Temperature 26 °F 35 °F -49 °F (1997)
Degree Days  
Heating Degree Days 35    
Moisture  
Dew Point 29 °F    
Average Humidity 92    
Maximum Humidity 100    
Minimum Humidity 87    
Precipitation  
Precipitation 0.40 in - - ()
Sea Level Pressure  
Sea Level Pressure 30.53 in    
Wind  
Wind Speed 12 mph (North)    
Max Wind Speed 17 mph    
Max Gust Speed -    
Visibility 2 miles    
Events Fog , Rain , Snow    
Averages and records for this station are not official NWS values.
T = Trace of Precipitation, MM = Missing Value Source: NWS Daily Summary

Daily Weather History Graph

Daily Weather History Graph

Search for Another Location

Airport or City:

Trip Planner

Search our weather history database for the weather conditions in past years. The results will help you decide how hot, cold, wet, or windy it might be!

Date:

Astronomy

Nov. 23, 2013 Rise Set
Actual Time 6:33 AM MST 4:53 PM MST
Civil Twilight 6:07 AM MST 5:19 PM MST
Nautical Twilight 5:37 AM MST 5:49 PM MST
Astronomical Twilight 5:07 AM MST 6:18 PM MST
Moon 10:16 PM MST (11/23) 10:58 AM MST (11/23)
Length of Visible Light 11h 12m
Length of Day
10h 19m
Waning Gibbous, 69% of the Moon is Illuminated
Nov 23
Waning Gibbous
Nov 25
Last Quarter
Dec 2
New
Dec 9
First Quarter
Dec 17
Full

Hourly Weather History & Observations

Time (MST) Temp. Windchill Dew Point Humidity Pressure Visibility Wind Dir Wind Speed Gust Speed Precip Events Conditions
12:12 AM 30.0 °F 20.5 °F 28.0 °F 92% 30.50 in 2.0 mi North 11.5 mph - 0.00 in Snow Light Snow
12:27 AM 30.0 °F 20.0 °F 28.0 °F 92% 30.50 in 1.8 mi NNW 12.7 mph - 0.00 in Snow Light Snow
12:40 AM 30.0 °F 19.1 °F 28.0 °F 92% 30.50 in 2.5 mi North 15.0 mph - 0.00 in Snow Light Snow
12:48 AM 30.2 °F 19.3 °F 28.4 °F 93% 30.50 in 4.0 mi NNW 15.0 mph - 0.00 in Snow Light Snow
12:53 AM 30.0 °F 19.1 °F 28.0 °F 92% 30.53 in 4.0 mi NNW 15.0 mph - 0.00 in   Overcast
1:01 AM 30.0 °F 19.1 °F 28.0 °F 92% 30.50 in 4.0 mi NNW 15.0 mph - N/A   Overcast
1:09 AM 30.0 °F 19.1 °F 28.0 °F 92% 30.50 in 3.0 mi North 15.0 mph - 0.00 in Snow Light Snow
1:19 AM 30.0 °F 20.0 °F 28.0 °F 92% 30.50 in 2.5 mi North 12.7 mph - 0.00 in Snow Light Snow
1:40 AM 30.0 °F 20.0 °F 28.0 °F 92% 30.50 in 3.0 mi North 12.7 mph - 0.00 in   Overcast
1:53 AM 30.0 °F 19.5 °F 28.0 °F 92% 30.53 in 4.0 mi North 13.8 mph - 0.00 in   Overcast
2:53 AM 30.0 °F 19.5 °F 28.0 °F 92% 30.53 in 3.0 mi NNW 13.8 mph - 0.00 in Rain Light Freezing Rain
3:04 AM 30.0 °F 19.5 °F 28.0 °F 92% 30.49 in 4.0 mi NNW 13.8 mph - 0.00 in   Overcast
3:11 AM 30.0 °F 20.5 °F 28.0 °F 92% 30.49 in 5.0 mi North 11.5 mph - 0.00 in   Overcast
3:37 AM 30.0 °F 20.0 °F 28.0 °F 92% 30.49 in 4.0 mi NNW 12.7 mph - 0.00 in   Overcast
3:48 AM 30.2 °F 20.8 °F 28.4 °F 93% 30.50 in 4.0 mi NNW 11.5 mph - 0.00 in   Overcast
3:53 AM 30.0 °F 19.1 °F 28.0 °F 92% 30.53 in 4.0 mi NNW 15.0 mph - 0.00 in   Overcast
4:08 AM 30.0 °F 19.5 °F 28.0 °F 92% 30.50 in 4.0 mi NNW 13.8 mph - 0.00 in Rain Light Freezing Rain
4:24 AM 30.0 °F 19.1 °F 28.0 °F 92% 30.49 in 2.0 mi NNW 15.0 mph - 0.00 in Rain Light Freezing Rain
4:37 AM 30.0 °F 19.5 °F 28.0 °F 92% 30.50 in 2.0 mi NNW 13.8 mph - 0.00 in Snow Light Snow
4:53 AM 30.9 °F 20.2 °F 28.9 °F 92% 30.53 in 2.5 mi North 15.0 mph - 0.01 in   Overcast
5:01 AM 30.9 °F 20.7 °F 28.9 °F 92% 30.50 in 5.0 mi NNW 13.8 mph - 0.00 in   Overcast
5:15 AM 30.9 °F 20.2 °F 28.9 °F 92% 30.50 in 3.0 mi NNW 15.0 mph - 0.00 in Rain Light Freezing Rain
5:46 AM 30.9 °F 21.2 °F 28.9 °F 92% 30.51 in 4.0 mi NNW 12.7 mph - 0.00 in   Overcast
5:53 AM 30.9 °F 20.7 °F 28.9 °F 92% 30.55 in 4.0 mi NNW 13.8 mph - 0.00 in Rain Light Freezing Rain
5:57 AM 30.9 °F 20.7 °F 28.9 °F 92% 30.52 in 3.0 mi NNW 13.8 mph - 0.01 in   Overcast
6:06 AM 30.9 °F 20.2 °F 28.9 °F 92% 30.53 in 3.0 mi NNW 15.0 mph - 0.01 in Rain Light Freezing Rain
6:24 AM 30.9 °F 21.2 °F 28.9 °F 92% 30.53 in 3.0 mi NNW 12.7 mph - 0.01 in Rain Light Freezing Rain
6:39 AM 30.9 °F 20.7 °F 28.9 °F 92% 30.53 in 2.5 mi NNW 13.8 mph - 0.01 in Rain Light Freezing Rain
6:45 AM 30.9 °F 20.7 °F 28.9 °F 92% 30.54 in 3.0 mi NNW 13.8 mph - 0.01 in Rain Light Freezing Rain
6:53 AM 30.9 °F 20.2 °F 28.9 °F 92% 30.57 in 3.0 mi NNW 15.0 mph - 0.01 in Rain Light Freezing Rain
7:01 AM 30.9 °F 20.7 °F 28.9 °F 92% 30.54 in 2.5 mi NNW 13.8 mph - 0.00 in Rain Light Freezing Rain
7:08 AM 30.9 °F 20.7 °F 28.9 °F 92% 30.54 in 2.0 mi NNW 13.8 mph - 0.00 in   Overcast
7:18 AM 30.9 °F 20.7 °F 30.0 °F 96% 30.54 in 1.8 mi NNW 13.8 mph - 0.00 in   Overcast
7:30 AM 32.0 °F 21.6 °F 28.9 °F 88% 30.55 in 2.0 mi NNW 15.0 mph - 0.00 in   Overcast
7:38 AM 32.0 °F 21.6 °F 30.0 °F 92% 30.55 in 1.8 mi NNW 15.0 mph - 0.00 in Rain Light Freezing Rain
7:44 AM 32.0 °F 22.1 °F 30.0 °F 92% 30.55 in 1.8 mi NNW 13.8 mph - 0.00 in Snow Light Snow
7:53 AM 32.0 °F 22.1 °F 30.0 °F 92% 30.58 in 1.8 mi NNW 13.8 mph - 0.00 in Snow Light Snow
8:01 AM 32.0 °F 22.1 °F 30.0 °F 92% 30.56 in 2.0 mi NNW 13.8 mph - 0.00 in Snow Light Snow
8:20 AM 32.0 °F 22.1 °F 30.0 °F 92% 30.55 in 2.5 mi NNW 13.8 mph - 0.00 in Snow Light Snow
8:35 AM 32.0 °F 22.1 °F 30.0 °F 92% 30.56 in 4.0 mi NNW 13.8 mph - 0.00 in Snow Light Snow
8:53 AM 32.0 °F 22.1 °F 30.0 °F 92% 30.59 in 5.0 mi NNW 13.8 mph - 0.00 in   Overcast
9:18 AM 32.0 °F 21.6 °F 30.0 °F 92% 30.57 in 3.0 mi NNW 15.0 mph - 0.00 in Snow Light Snow
9:30 AM 32.0 °F 21.6 °F 30.0 °F 92% 30.57 in 2.5 mi NNW 15.0 mph - 0.00 in Snow Light Snow
9:45 AM 32.0 °F 22.1 °F 30.0 °F 92% 30.57 in 1.5 mi NNW 13.8 mph - 0.00 in   Overcast
9:53 AM 32.0 °F 21.6 °F 30.0 °F 92% 30.61 in 1.5 mi NNW 15.0 mph - 0.00 in Snow Light Snow
10:33 AM 33.1 °F 22.6 °F 30.0 °F 89% 30.57 in 2.0 mi NNW 16.1 mph - 0.00 in Rain Light Rain
10:53 AM 33.1 °F 23.0 °F 30.0 °F 89% 30.60 in 2.5 mi NNW 15.0 mph - 0.00 in   Overcast
11:32 AM 33.1 °F 23.0 °F 30.9 °F 92% 30.56 in 3.0 mi NNW 15.0 mph - N/A   Overcast
11:51 AM 33.8 °F 23.5 °F 30.2 °F 87% 30.55 in 2.0 mi NNW 16.1 mph - N/A   Overcast
11:53 AM 33.1 °F 22.2 °F 30.9 °F 92% 30.57 in 1.8 mi NNW 17.3 mph - 0.00 in   Overcast
12:53 PM 34.0 °F 25.0 °F 32.0 °F 92% 30.54 in 1.5 mi North 12.7 mph - 0.00 in Rain Light Rain
1:53 PM 33.1 °F 25.5 °F 30.9 °F 92% 30.53 in 1.2 mi NNE 9.2 mph - 0.01 in Rain Rain
2:30 PM 33.1 °F 25.5 °F 30.9 °F 92% 30.49 in 0.5 mi NNE 9.2 mph - 0.06 in Fog , Snow Light Snow
2:42 PM 33.1 °F 24.9 °F 30.9 °F 92% 30.47 in 1.0 mi NNE 10.4 mph - 0.08 in Snow Light Snow
2:53 PM 33.1 °F 27.7 °F 32.0 °F 96% 30.52 in 1.2 mi NNE 5.8 mph - 0.09 in Rain Rain
3:17 PM 33.1 °F 30.0 °F 30.9 °F 92% 30.52 in 1.2 mi NE 3.5 mph - 0.00 in   Overcast
3:28 PM 33.1 °F - 30.9 °F 92% 30.51 in 0.5 mi Calm Calm - 0.02 in Fog , Snow Light Snow
3:51 PM 32.0 °F 27.5 °F 30.2 °F 93% 30.52 in 0.2 mi NNW 4.6 mph - 0.03 in Fog , Snow Light Snow
3:53 PM 32.0 °F 26.4 °F 30.9 °F 96% 30.54 in 0.2 mi North 5.8 mph - 0.03 in Fog , Snow Light Snow
4:26 PM 32.0 °F 24.8 °F 30.9 °F 96% 30.51 in 0.8 mi NNE 8.1 mph - 0.01 in Snow Light Snow
4:35 PM 32.0 °F 23.6 °F 30.9 °F 96% 30.51 in 1.2 mi NNE 10.4 mph - 0.01 in Snow Light Snow
4:49 PM 32.0 °F 24.2 °F 30.2 °F 93% 30.51 in 3.0 mi NE 9.2 mph - 0.02 in Snow Light Snow
4:53 PM 32.0 °F 23.6 °F 30.0 °F 92% 30.53 in 5.0 mi NE 10.4 mph - 0.02 in   Overcast
5:11 PM 32.0 °F 23.6 °F 30.0 °F 92% 30.50 in 2.0 mi NE 10.4 mph - 0.00 in Snow Light Snow
5:37 PM 30.9 °F 20.7 °F 28.9 °F 92% 30.51 in 1.8 mi NE 13.8 mph - 0.02 in Snow Light Snow
5:44 PM 30.9 °F 22.2 °F 28.9 °F 92% 30.52 in 2.0 mi NE 10.4 mph - 0.03 in   Overcast
5:53 PM 30.9 °F 24.3 °F 28.9 °F 92% 30.57 in 2.5 mi NE 6.9 mph - 0.04 in   Overcast
6:08 PM 30.9 °F 22.2 °F 28.0 °F 89% 30.53 in 2.5 mi NE 10.4 mph - 0.02 in   Overcast
6:30 PM 30.0 °F 22.4 °F 28.0 °F 92% 30.52 in 2.0 mi NE 8.1 mph - 0.06 in   Overcast
6:53 PM 30.0 °F 23.2 °F 28.0 °F 92% 30.56 in 2.0 mi NNE 6.9 mph - 0.09 in Snow Light Snow
7:02 PM 30.0 °F 21.7 °F 28.0 °F 92% 30.53 in 1.5 mi NNE 9.2 mph - 0.00 in Snow Light Snow
7:12 PM 30.0 °F 21.7 °F 27.0 °F 88% 30.53 in 0.8 mi NNE 9.2 mph - 0.02 in Snow Light Snow
7:33 PM 28.9 °F 21.1 °F 27.0 °F 92% 30.54 in 0.5 mi North 8.1 mph - 0.05 in Fog , Snow Snow
7:42 PM 28.9 °F 20.4 °F 27.0 °F 92% 30.53 in 0.8 mi North 9.2 mph - 0.06 in Snow Light Snow
7:49 PM 28.4 °F 20.4 °F 28.4 °F 100% 30.52 in 1.0 mi NNE 8.1 mph - 0.07 in Snow Light Snow
7:53 PM 28.9 °F 21.1 °F 27.0 °F 92% 30.55 in 1.0 mi NNE 8.1 mph - 0.07 in Snow Light Snow
8:08 PM 28.9 °F 19.2 °F 28.0 °F 96% 30.53 in 0.8 mi NNE 11.5 mph - 0.01 in Snow Light Snow
8:13 PM 28.9 °F 19.2 °F 27.0 °F 92% 30.53 in 1.2 mi NNE 11.5 mph - 0.01 in Snow Light Snow
8:53 PM 28.0 °F 18.6 °F 26.1 °F 92% 30.57 in 1.5 mi NNE 10.4 mph - 0.02 in Snow Light Snow
9:07 PM 28.0 °F 19.3 °F 26.1 °F 92% 30.54 in 2.5 mi NNE 9.2 mph - 0.00 in Snow Light Snow
9:18 PM 28.0 °F 20.8 °F 26.1 °F 92% 30.54 in 1.2 mi North 6.9 mph - 0.00 in Snow Light Snow
9:44 PM 28.0 °F 19.3 °F 26.1 °F 92% 30.54 in 0.8 mi North 9.2 mph - 0.00 in Snow Light Snow
9:53 PM 28.0 °F 20.0 °F 26.1 °F 92% 30.57 in 0.8 mi North 8.1 mph - 0.01 in Snow Light Snow
10:04 PM 28.0 °F 19.3 °F 26.1 °F 92% 30.53 in 1.0 mi North 9.2 mph - 0.00 in Snow Light Snow
10:24 PM 28.0 °F 19.3 °F 26.1 °F 92% 30.53 in 1.8 mi NNE 9.2 mph - 0.00 in Snow Light Snow
10:32 PM 28.0 °F 20.0 °F 26.1 °F 92% 30.53 in 2.0 mi NE 8.1 mph - 0.00 in Snow Light Snow
10:53 PM 28.0 °F 19.3 °F 26.1 °F 92% 30.55 in 2.5 mi North 9.2 mph - 0.00 in Snow Light Snow
11:02 PM 28.0 °F 20.0 °F 26.1 °F 92% 30.52 in 1.2 mi North 8.1 mph - 0.00 in Snow Light Snow
11:12 PM 28.0 °F 20.0 °F 26.1 °F 92% 30.53 in 1.5 mi North 8.1 mph - 0.00 in Snow Light Snow
11:20 PM 28.0 °F 18.6 °F 26.1 °F 92% 30.52 in 1.8 mi North 10.4 mph - 0.00 in Snow Light Snow
11:28 PM 28.0 °F 19.3 °F 25.0 °F 88% 30.52 in 2.5 mi North 9.2 mph - 0.00 in Snow Light Snow
11:32 PM 28.0 °F 20.0 °F 25.0 °F 88% 30.52 in 2.5 mi North 8.1 mph - 0.00 in Snow Light Snow
11:51 PM 26.6 °F 18.2 °F 24.8 °F 93% 30.51 in 4.0 mi North 8.1 mph - 0.00 in   Overcast
11:53 PM 27.0 °F 19.5 °F 25.0 °F 92% 30.54 in 4.0 mi North 6.9 mph - 0.00 in   Overcast